DAMPETORP Weather Reports


Display with metric or nautical units.
time (UTC)temp
F
wind
direction
speed
MPH
gust
MPH
rain 1hr
in
rain 24hr
in
rain mn
in
humidity
%
barometer
mb
20260509050027 43 330 0.0 1.0 0.00 0.00 0.00 69 1024.1
20260509044521 42 330 0.0 1.0 0.00 0.00 0.00 68 1024.2
20260509043019 39 330 0.0 0.0 0.00 0.00 0.00 75 1024.4
20260509041521 35 330 0.0 0.0 0.00 0.00 0.00 79 1024.3
20260509040033 38 330 0.0 0.0 0.00 0.00 0.00 73 1024.2
20260509034517 34 330 0.0 0.0 0.00 0.00 0.00 81 1024.3
20260509033016 29 330 0.0 0.0 0.00 0.00 0.00 85 1024.4
20260509031525 29 330 0.0 0.0 0.00 0.00 0.00 87 1024.4
20260509030014 28 330 0.0 0.0 0.00 0.00 0.00 82 1024.3
20260509024511 29 330 0.0 0.0 0.00 0.00 0.00 83 1024.4
20260509023010 29 330 0.0 0.0 0.00 0.00 0.00 79 1024.3
20260509021508 29 330 0.0 0.0 0.00 0.00 0.00 78 1024.4
20260509020005 30 330 0.0 0.0 0.00 0.00 0.00 76 1024.5
20260509014507 30 330 0.0 0.0 0.00 0.00 0.00 75 1024.5
20260509013103 31 330 0.0 0.0 0.00 0.00 0.00 73 1024.5
20260509011559 31 330 0.0 0.0 0.00 0.00 0.00 72 1024.6
20260509004606 32 330 0.0 0.0 0.00 0.00 0.00 66 1024.5
20260509003053 33 330 0.0 1.0 0.00 0.00 0.00 65 1024.5
20260509001548 34 330 0.0 1.0 0.00 0.00 0.00 63 1024.6
20260509000047 35 330 0.0 0.0 0.00 0.00 0.00 60 1024.7
20260508234549 36 330 0.0 0.0 0.00 0.00 0.00 57 1024.6
20260508233041 37 330 0.0 1.0 0.00 0.00 0.00 54 1024.6
20260508231535 39 330 0.0 1.0 0.00 0.00 0.00 49 1024.7
20260508230043 39 330 0.0 2.0 0.00 0.00 0.00 48 1024.8
20260508224531 39 330 0.0 1.0 0.00 0.00 0.00 49 1024.8
20260508223033 41 330 0.0 1.0 0.00 0.00 0.00 45 1024.8
20260508221527 42 328 0.0 2.0 0.00 0.00 0.00 42 1024.6
20260508220101 42 328 0.0 1.0 0.00 0.00 0.00 42 1024.6
20260508214521 44 355 0.0 4.0 0.00 0.00 0.00 38 1024.6
20260508213021 44 346 1.0 4.0 0.00 0.00 0.00 39 1024.6
20260508211524 44 339 0.0 5.0 0.00 0.00 0.00 39 1024.4
20260508210020 45 39 1.0 6.0 0.00 0.00 0.00 40 1024.4
20260508204521 45 346 0.0 6.0 0.00 0.00 0.00 41 1024.3
20260508203017 46 336 0.0 5.0 0.00 0.00 0.00 39 1024.2
20260508201521 46 315 1.0 5.0 0.00 0.00 0.00 40 1024.2
20260508200017 46 341 0.0 3.0 0.00 0.00 0.00 40 1024.1
20260508194514 47 342 0.0 1.0 0.00 0.00 0.00 38 1024.0
20260508193012 48 302 0.0 3.0 0.00 0.00 0.00 38 1024.0
20260508191517 49 295 1.0 5.0 0.00 0.00 0.00 36 1023.9
20260508190012 50 301 2.0 4.0 0.00 0.00 0.00 35 1023.8
20260508184512 52 319 0.0 4.0 0.00 0.00 0.00 34 1023.7
20260508183010 53 327 0.0 5.0 0.00 0.00 0.00 33 1023.6
20260508181507 54 303 2.0 7.0 0.00 0.00 0.00 31 1023.4
20260508180009 55 8 1.0 8.0 0.00 0.00 0.00 29 1023.2
20260508174509 56 301 3.0 6.0 0.00 0.00 0.00 28 1023.0
20260508173004 57 316 2.0 8.0 0.00 0.00 0.00 28 1023.0
20260508171504 57 285 4.0 9.0 0.00 0.00 0.00 26 1022.8
20260508170003 58 309 2.0 11.0 0.00 0.00 0.00 26 1022.8
20260508164503 59 328 2.0 9.0 0.00 0.00 0.00 27 1022.7
20260508163003 60 296 5.0 10.0 0.00 0.00 0.00 24 1022.6
20260508161501 61 326 4.0 10.0 0.00 0.00 0.00 25 1022.7
20260508160001 61 322 3.0 11.0 0.00 0.00 0.00 24 1022.6
20260508154600 62 355 2.0 13.0 0.00 0.00 0.00 24 1022.6
20260508153103 62 330 2.0 11.0 0.00 0.00 0.00 25 1022.6
20260508151602 63 329 1.0 8.0 0.00 0.00 0.00 25 1022.6
20260508150058 63 300 6.0 12.0 0.00 0.00 0.00 24 1022.6
20260508144605 63 307 3.0 10.0 0.00 0.00 0.00 23 1022.6
20260508143059 62 309 5.0 10.0 0.00 0.00 0.00 24 1022.7
20260508141600 63 310 2.0 10.0 0.00 0.00 0.00 24 1022.7
20260508140059 63 291 2.0 8.0 0.00 0.00 0.00 25 1022.7
20260508134606 63 311 1.0 7.0 0.00 0.00 0.00 28 1022.7
20260508133054 63 309 1.0 11.0 0.00 0.00 0.00 28 1022.8
20260508131553 63 355 5.0 10.0 0.00 0.00 0.00 27 1022.8
20260508130052 63 341 4.0 8.0 0.00 0.00 0.00 27 1022.9
20260508124551 63 309 4.0 12.0 0.00 0.00 0.00 28 1023.0
20260508123104 62 291 6.0 9.0 0.00 0.00 0.00 28 1023.1
20260508121551 62 311 4.0 9.0 0.00 0.00 0.00 29 1023.0
20260508120049 63 307 2.0 10.0 0.00 0.00 0.00 28 1023.1
20260508114552 63 307 4.0 8.0 0.00 0.00 0.00 29 1023.1
20260508113058 62 309 3.0 12.0 0.00 0.00 0.00 28 1023.1
20260508111547 63 320 3.0 7.0 0.00 0.00 0.00 28 1023.0
20260508110043 62 360 3.0 7.0 0.00 0.00 0.00 30 1023.0
20260508104543 62 323 2.0 8.0 0.00 0.00 0.00 28 1023.1
20260508103042 61 309 4.0 12.0 0.00 0.00 0.00 28 1023.2
20260508101539 60 324 4.0 16.0 0.00 0.00 0.00 28 1023.1
20260508100037 61 321 5.0 11.0 0.00 0.00 0.00 27 1023.2
20260508094549 61 331 3.0 10.0 0.00 0.00 0.00 26 1023.1
20260508093036 61 317 5.0 12.0 0.00 0.00 0.00 24 1023.2
20260508091540 60 300 7.0 14.0 0.00 0.00 0.00 23 1023.1
20260508090031 59 334 3.0 10.0 0.00 0.00 0.00 23 1023.2
20260508084529 59 312 4.0 8.0 0.00 0.00 0.00 24 1023.2
20260508083025 58 324 5.0 11.0 0.00 0.00 0.00 24 1023.2
20260508081552 57 327 6.0 9.0 0.00 0.00 0.00 24 1023.3
20260508080020 56 326 2.0 11.0 0.00 0.00 0.00 27 1023.3
20260508074518 55 305 2.0 9.0 0.00 0.00 0.00 26 1023.2
20260508073017 56 327 5.0 11.0 0.00 0.00 0.00 31 1023.2
20260508071526 55 293 2.0 9.0 0.00 0.00 0.00 39 1023.1
20260508070008 54 321 3.0 8.0 0.00 0.00 0.00 41 1022.9
20260508064509 52 302 2.0 7.0 0.00 0.00 0.00 44 1022.8
20260508063002 52 321 1.0 4.0 0.00 0.00 0.00 46 1022.6
20260508061558 50 299 0.0 6.0 0.00 0.00 0.00 48 1022.5
20260508060057 49 8 1.0 4.0 0.00 0.00 0.00 52 1022.4
20260508054552 48 307 1.0 3.0 0.00 0.00 0.00 52 1022.2
20260508053048 46 340 1.0 3.0 0.00 0.00 0.00 56 1022.1
20260508051545 46 311 1.0 3.0 0.00 0.00 0.00 57 1021.9